ONEWEB-0021 (45134 NORAD) Tracking and Keplerian Element Data

This shows tracking and keplerian element data for the satellite.

Feedback or suggestion? Click here.




ElementValue
Catalog45134
NameONEWEB-0021
Epoch Orbit856
Epoch Day88.11604255
Epoch Year2020
RAAN147.087
Inclination87.5284
Eccentricity0.001995
Argument of Perigee103.1905
Mean Anonmoly257.1562
Mean Motion15.12986037
Decay Rate-0.00090152
L11 45134U 20008D 20088.11604255 -.00090152 00000-0 -51584-2 0 9993
L22 45134 87.5284 147.0870 0019950 103.1905 257.1562 15.12986037 8562

Live tracking and technical data element details for ONEWEB-0021 (NORAD 45134). ONEWEB-0021 can be tracked NOW for your location showing map with azimuth and elevation plus other details from your city location.

Track the satellite on the map from your city or location and see movement details for azimuth, elevation, latitude, longitude, range, height, and movement on the map or in text.







IsCatalogInMostPopularTable: catalog: 45134, numindb: 10
Update: records affected: 1



GetName: 45134 ONEWEB-0021

Hit Count: updated at: Tue, 31 Mar 2020 13:39:34 GMT